Search for airport 
image banner adimage banner adimage banner ad
image banner ad

22NV - Humboldt General Hospital Ems

Located in Winnemucca, United States

ICAO - 22NV, IATA -

Data provided by Airmate  

General information

Coordinates: N40°58'19" W117°43'44"
Elevation is 4336 feet MSL.
 
View others Airports in Nevada

Operational data

Special qualification required
Current time UTC:
Current local time:
Weather at : KWMC - Winnemucca Muni ( 11 km )
METAR: KWMC 131056Z AUTO 00000KT 10SM CLR 10/01 A2996 RMK AO2 SLP103 T01000011
TAF: KWMC 130520Z 1306/1406 VRB05KT P6SM FEW200 FM132100 22010G20KT P6SM SKC FM140300 VRB06KT P6SM SKC
View NOTAMs / SUP AIP / TFR affecting this airport [VIEW]
Communications frequencies: [VIEW]

Runways:

Airport contact information

Address: Winnemucca United States

Satellite view of 22NV